Weather in Borzoy

Russia / Chechen Republic     42°50′24″N   45°37′54″E
temp.,
°C
wind,
m/s
gust,
m/s
humid.,
%
clouds,
%
prec.,
mm/h
press.,
hPa
HPBL,
m
11 may, tue
tue1100:00−5sse339117 0.0 102440
03:00−6sse34906 0.0 102353
06:00−2sse35865 0.0 1020106
09:00+5e03763 0.0 1014667
12:00+9n03729 0.0 1012875
15:00+10nnw12717 0.0 1012810
18:00+6nnw229126 0.0 1014211
21:00+2sse229617 0.0 101738
12 may, wed
wed1200:00+2sse22923 0.0 101732
03:00+3s34890 0.0 101647
06:00+6s23860 0.0 101452
09:00+12nnw21690 0.0 1013438
12:00+14nnw336413 0.0 1013889
15:00+14n326510 0.0 1014716
18:00+11n128510 0.0 1016164
21:00+7s33790 0.0 101740
13 may, thu
thu1300:00+7s44704 0.0 101653
03:00+7s456841 0.0 101663
06:00+10s45650 0.0 101574
09:00+20se03343 0.0 10131262
12:00+21nw23311 0.0 10132185
15:00+21nnw12360 0.0 10131701
18:00+16nw11690 0.0 101566
21:00+11s44571 0.0 101854
14 may, fri
fri1400:00+10s4554100 0.0 101767
03:00+10s455356 0.0 101768
06:00+12s455526 0.0 101779
09:00+22sse12280 0.0 10141354
12:00+24nnw13285 0.0 10132767
15:00+23nnw223828 0.0 10131983
18:00+19nne01633 0.0 101445
21:00+13s45661 0.0 101772
15 may, sat
sat1500:00+11s45650 0.0 101687
03:00+11s45692 0.0 101685
06:00+13s45661 0.0 1016103
09:00+22nne11310 0.0 10141224
12:00+23n433438 0.0 10142312
15:00+22n33430 0.1 10131408
18:00
21:00+11s338393 2.9 101942